Time,TemperatureF,DewpointF,PressureIn,WindDirection,WindDirectionDegrees,WindSpeedMPH,WindSpeedGustMPH,Humidity,HourlyPrecipIn,Conditions,Clouds,dailyrainin,SoftwareType,DateUTC
2013-05-26 00:03:00,44.0,28.0,29.26,North,0,0.0,0.0,52,0.00,,,0.00,,2013-05-26 04:03:00,
2013-05-26 00:12:00,44.0,28.0,29.26,North,0,0.0,0.0,52,0.00,,,0.00,,2013-05-26 04:12:00,
2013-05-26 00:23:00,44.0,28.0,29.26,North,0,0.0,0.0,52,0.00,,,0.00,,2013-05-26 04:23:00,
2013-05-26 00:33:00,43.0,28.0,29.26,North,0,0.0,0.0,55,0.00,,,0.00,,2013-05-26 04:33:00,
2013-05-26 00:42:00,43.0,28.0,29.26,North,0,0.0,0.0,55,0.00,,,0.00,,2013-05-26 04:42:00,
2013-05-26 00:52:00,43.0,29.0,29.26,North,0,0.0,0.0,57,0.00,,,0.00,,2013-05-26 04:52:00,
2013-05-26 01:02:00,42.0,29.0,29.26,North,0,0.0,0.0,59,0.00,,,0.00,,2013-05-26 05:02:00,
2013-05-26 01:12:00,42.0,29.0,29.26,North,0,0.0,0.0,59,0.00,,,0.00,,2013-05-26 05:12:00,
2013-05-26 01:22:00,42.0,29.0,29.26,North,0,0.0,0.0,59,0.00,,,0.00,,2013-05-26 05:22:00,
2013-05-26 01:32:00,41.0,29.0,29.23,NNW,337,0.0,0.0,61,0.00,,,0.00,,2013-05-26 05:32:00,
2013-05-26 01:42:00,41.0,29.0,29.23,NNW,337,0.0,0.0,61,0.00,,,0.00,,2013-05-26 05:42:00,
2013-05-26 01:52:00,41.0,29.0,29.23,NNW,337,0.0,0.0,61,0.00,,,0.00,,2013-05-26 05:52:00,
2013-05-26 02:01:00,40.0,29.0,29.23,North,0,0.0,0.0,64,0.00,,,0.00,,2013-05-26 06:01:00,
2013-05-26 02:12:00,40.0,29.0,29.23,North,0,0.0,0.0,64,0.00,,,0.00,,2013-05-26 06:12:00,
2013-05-26 02:22:00,40.0,30.0,29.23,NNE,22,0.0,0.0,68,0.00,,,0.00,,2013-05-26 06:22:00,
2013-05-26 02:32:00,40.0,31.0,29.23,NNE,22,0.0,0.0,69,0.00,,,0.00,,2013-05-26 06:32:00,
2013-05-26 02:42:00,40.0,31.0,29.23,NNE,22,0.0,0.0,69,0.00,,,0.00,,2013-05-26 06:42:00,
2013-05-26 02:52:00,39.0,30.0,29.23,NNE,22,0.0,0.0,70,0.00,,,0.00,,2013-05-26 06:52:00,
2013-05-26 03:01:00,39.0,30.0,29.23,NNE,22,0.0,0.0,70,0.00,,,0.00,,2013-05-26 07:01:00,
2013-05-26 03:11:00,39.0,30.0,29.23,NNE,22,0.0,0.0,70,0.00,,,0.00,,2013-05-26 07:11:00,
2013-05-26 03:22:00,38.0,29.0,29.23,North,0,0.0,0.0,71,0.00,,,0.00,,2013-05-26 07:22:00,
2013-05-26 03:32:00,38.0,30.0,29.23,NNW,337,0.0,0.0,72,0.00,,,0.00,,2013-05-26 07:32:00,
2013-05-26 03:42:00,38.0,30.0,29.23,NNW,337,0.0,0.0,72,0.00,,,0.00,,2013-05-26 07:42:00,
2013-05-26 03:52:00,38.0,30.0,29.23,NNE,22,0.0,0.0,74,0.00,,,0.00,,2013-05-26 07:52:00,
2013-05-26 04:01:00,37.0,30.0,29.23,North,0,0.0,0.0,75,0.00,,,0.00,,2013-05-26 08:01:00,
2013-05-26 04:12:00,37.0,30.0,29.23,North,0,0.0,0.0,75,0.00,,,0.00,,2013-05-26 08:12:00,
2013-05-26 04:21:00,37.0,30.0,29.23,North,0,0.0,0.0,76,0.00,,,0.00,,2013-05-26 08:21:00,
2013-05-26 04:32:00,36.0,29.0,29.23,North,0,0.0,0.0,75,0.00,,,0.00,,2013-05-26 08:32:00,
2013-05-26 04:42:00,36.0,29.0,29.23,North,0,0.0,0.0,75,0.00,,,0.00,,2013-05-26 08:42:00,
2013-05-26 04:53:00,36.0,29.0,29.23,NNE,22,0.0,0.0,76,0.00,,,0.00,,2013-05-26 08:53:00,
2013-05-26 05:01:00,36.0,29.0,29.23,NNE,22,0.0,0.0,77,0.00,,,0.00,,2013-05-26 09:01:00,
2013-05-26 05:11:00,36.0,29.0,29.23,NNE,22,0.0,0.0,77,0.00,,,0.00,,2013-05-26 09:11:00,
2013-05-26 05:21:00,36.0,29.0,29.23,NNE,22,0.0,0.0,77,0.00,,,0.00,,2013-05-26 09:21:00,
2013-05-26 05:33:00,35.0,29.0,29.23,NNE,22,0.0,0.0,78,0.00,,,0.00,,2013-05-26 09:33:00,
2013-05-26 05:43:00,35.0,29.0,29.23,NNE,22,0.0,0.0,78,0.00,,,0.00,,2013-05-26 09:43:00,
2013-05-26 05:52:00,35.0,29.0,29.26,NNE,22,0.0,0.0,78,0.00,,,0.00,,2013-05-26 09:52:00,
2013-05-26 06:03:00,35.0,29.0,29.26,NNE,22,0.0,0.0,79,0.00,,,0.00,,2013-05-26 10:03:00,
2013-05-26 06:12:00,35.0,29.0,29.26,NNE,22,0.0,0.0,79,0.00,,,0.00,,2013-05-26 10:12:00,
2013-05-26 06:23:00,35.0,29.0,29.25,NNE,22,0.0,0.0,79,0.00,,,0.00,,2013-05-26 10:23:00,
2013-05-26 06:33:00,34.0,29.0,29.26,NNE,22,0.0,0.0,81,0.00,,,0.00,,2013-05-26 10:33:00,
2013-05-26 06:42:00,34.0,29.0,29.26,NNE,22,0.0,0.0,81,0.00,,,0.00,,2013-05-26 10:42:00,
2013-05-26 06:52:00,35.0,30.0,29.26,NNE,22,0.0,0.0,82,0.00,,,0.00,,2013-05-26 10:52:00,
2013-05-26 07:03:00,37.0,33.0,29.26,NNE,22,0.0,0.0,84,0.00,,,0.00,,2013-05-26 11:03:00,
2013-05-26 07:11:00,37.0,33.0,29.26,NNE,22,0.0,0.0,84,0.00,,,0.00,,2013-05-26 11:11:00,
2013-05-26 07:22:00,38.0,34.0,29.26,NNE,22,0.0,0.0,86,0.00,,,0.00,,2013-05-26 11:22:00,
2013-05-26 07:32:00,42.0,38.0,29.26,NNE,22,0.0,0.0,87,0.00,,,0.00,,2013-05-26 11:32:00,
2013-05-26 07:42:00,42.0,38.0,29.26,NNE,22,0.0,0.0,87,0.00,,,0.00,,2013-05-26 11:42:00,
2013-05-26 07:52:00,43.0,38.0,29.26,NNE,22,1.0,3.0,83,0.00,,,0.00,,2013-05-26 11:52:00,
2013-05-26 08:02:00,43.0,38.0,29.26,NNE,22,1.0,3.0,83,0.00,,,0.00,,2013-05-26 12:02:00,
2013-05-26 08:12:00,43.0,38.0,29.26,NNE,22,1.0,3.0,83,0.00,,,0.00,,2013-05-26 12:12:00,
2013-05-26 08:22:00,46.0,33.0,29.29,NNW,336,3.0,4.0,61,0.00,,,0.00,,2013-05-26 12:22:00,
2013-05-26 08:32:00,47.0,33.0,29.29,North,0,1.0,4.0,59,0.00,,,0.00,,2013-05-26 12:32:00,
2013-05-26 08:42:00,47.0,33.0,29.29,North,0,1.0,4.0,59,0.00,,,0.00,,2013-05-26 12:42:00,
2013-05-26 08:52:00,51.0,35.0,29.26,NNW,337,1.0,4.0,54,0.00,,,0.00,,2013-05-26 12:52:00,
2013-05-26 09:02:00,53.0,35.0,29.26,SSE,160,2.0,3.0,51,0.00,,,0.00,,2013-05-26 13:02:00,
2013-05-26 09:11:00,53.0,35.0,29.26,SSE,160,2.0,3.0,51,0.00,,,0.00,,2013-05-26 13:11:00,
2013-05-26 09:22:00,54.0,34.0,29.26,WNW,292,2.0,3.0,47,0.00,,,0.00,,2013-05-26 13:22:00,
2013-05-26 09:32:00,57.0,35.0,29.27,NNW,337,2.0,5.0,43,0.00,,,0.00,,2013-05-26 13:32:00,
2013-05-26 09:42:00,57.0,35.0,29.27,NNW,337,2.0,5.0,43,0.00,,,0.00,,2013-05-26 13:42:00,
2013-05-26 09:52:00,59.0,35.0,29.27,WSW,247,0.0,3.0,40,0.00,,,0.00,,2013-05-26 13:52:00,
2013-05-26 10:02:00,61.0,30.0,29.27,NW,322,2.0,5.0,31,0.00,,,0.00,,2013-05-26 14:02:00,
2013-05-26 10:11:00,61.0,30.0,29.27,NW,322,2.0,5.0,31,0.00,,,0.00,,2013-05-26 14:11:00,
2013-05-26 10:22:00,62.0,28.0,29.30,North,349,5.0,6.0,27,0.00,,,0.00,,2013-05-26 14:22:00,
2013-05-26 10:32:00,63.0,29.0,29.30,ESE,112,3.0,5.0,27,0.00,,,0.00,,2013-05-26 14:32:00,
2013-05-26 10:42:00,63.0,29.0,29.30,ESE,112,3.0,5.0,27,0.00,,,0.00,,2013-05-26 14:42:00,
2013-05-26 10:52:00,64.0,27.0,29.30,East,92,3.0,7.0,25,0.00,,,0.00,,2013-05-26 14:52:00,
2013-05-26 11:02:00,65.0,28.0,29.30,ENE,75,5.0,9.0,25,0.00,,,0.00,,2013-05-26 15:02:00,
2013-05-26 11:12:00,65.0,28.0,29.30,ENE,75,5.0,9.0,25,0.00,,,0.00,,2013-05-26 15:12:00,
2013-05-26 11:22:00,65.0,28.0,29.30,South,175,3.0,6.0,25,0.00,,,0.00,,2013-05-26 15:22:00,
2013-05-26 11:33:00,68.0,29.0,29.30,ESE,112,3.0,7.0,23,0.00,,,0.00,,2013-05-26 15:33:00,
2013-05-26 11:43:00,68.0,29.0,29.30,ESE,112,3.0,7.0,23,0.00,,,0.00,,2013-05-26 15:43:00,
2013-05-26 11:53:00,68.0,29.0,29.30,WSW,244,3.0,7.0,23,0.00,,,0.00,,2013-05-26 15:53:00,
2013-05-26 12:03:00,69.0,29.0,29.27,NNW,344,2.0,6.0,22,0.00,,,0.00,,2013-05-26 16:03:00,
2013-05-26 12:12:00,69.0,29.0,29.27,NNW,344,2.0,6.0,22,0.00,,,0.00,,2013-05-26 16:12:00,
2013-05-26 12:23:00,70.0,29.0,29.27,SE,133,3.0,10.0,22,0.00,,,0.00,,2013-05-26 16:23:00,
2013-05-26 12:33:00,71.0,30.0,29.27,NW,321,3.0,6.0,22,0.00,,,0.00,,2013-05-26 16:33:00,
2013-05-26 12:42:00,71.0,30.0,29.27,NW,321,3.0,6.0,22,0.00,,,0.00,,2013-05-26 16:42:00,
2013-05-26 12:53:00,71.0,30.0,29.27,WSW,240,3.0,7.0,22,0.00,,,0.00,,2013-05-26 16:53:00,
2013-05-26 13:02:00,71.0,27.0,29.27,West,275,4.0,7.0,19,0.00,,,0.00,,2013-05-26 17:02:00,
2013-05-26 13:11:00,71.0,27.0,29.27,West,275,4.0,7.0,19,0.00,,,0.00,,2013-05-26 17:11:00,
2013-05-26 13:22:00,72.0,27.0,29.27,WNW,289,5.0,6.0,19,0.00,,,0.00,,2013-05-26 17:22:00,
2013-05-26 13:32:00,71.0,27.0,29.27,NW,325,4.0,10.0,19,0.00,,,0.00,,2013-05-26 17:32:00,
2013-05-26 13:42:00,71.0,27.0,29.27,NW,325,4.0,10.0,19,0.00,,,0.00,,2013-05-26 17:42:00,
2013-05-26 13:52:00,72.0,25.0,29.27,WNW,300,4.0,8.0,17,0.00,,,0.00,,2013-05-26 17:52:00,
2013-05-26 14:01:00,73.0,28.0,29.27,WNW,298,3.0,6.0,19,0.00,,,0.00,,2013-05-26 18:01:00,
2013-05-26 14:12:00,73.0,28.0,29.27,WNW,298,3.0,6.0,19,0.00,,,0.00,,2013-05-26 18:12:00,
2013-05-26 14:22:00,74.0,28.0,29.27,West,260,3.0,6.0,18,0.00,,,0.00,,2013-05-26 18:22:00,
2013-05-26 14:32:00,74.0,28.0,29.27,NNW,333,2.0,6.0,18,0.00,,,0.00,,2013-05-26 18:32:00,
2013-05-26 14:42:00,74.0,28.0,29.27,NNW,333,2.0,6.0,18,0.00,,,0.00,,2013-05-26 18:42:00,
2013-05-26 14:52:00,75.0,26.0,29.27,NW,325,5.0,7.0,16,0.00,,,0.00,,2013-05-26 18:52:00,
2013-05-26 15:01:00,75.0,26.0,29.27,North,350,4.0,7.0,16,0.00,,,0.00,,2013-05-26 19:01:00,
2013-05-26 15:11:00,75.0,26.0,29.27,North,350,4.0,7.0,16,0.00,,,0.00,,2013-05-26 19:11:00,
2013-05-26 15:22:00,74.0,26.0,29.24,North,0,3.0,8.0,17,0.00,,,0.00,,2013-05-26 19:22:00,
2013-05-26 15:32:00,75.0,24.0,29.24,West,261,3.0,7.0,15,0.00,,,0.00,,2013-05-26 19:32:00,
2013-05-26 15:42:00,75.0,24.0,29.24,West,261,3.0,7.0,15,0.00,,,0.00,,2013-05-26 19:42:00,
2013-05-26 15:52:00,76.0,25.0,29.24,NNW,341,3.0,6.0,15,0.00,,,0.00,,2013-05-26 19:52:00,
2013-05-26 16:02:00,75.0,26.0,29.23,NW,307,5.0,11.0,16,0.00,,,0.00,,2013-05-26 20:02:00,
2013-05-26 16:11:00,75.0,26.0,29.23,NW,307,5.0,11.0,16,0.00,,,0.00,,2013-05-26 20:11:00,
2013-05-26 16:22:00,76.0,27.0,29.24,North,1,3.0,5.0,16,0.00,,,0.00,,2013-05-26 20:22:00,
2013-05-26 16:32:00,75.0,26.0,29.23,NNW,334,4.0,8.0,16,0.00,,,0.00,,2013-05-26 20:32:00,
2013-05-26 16:42:00,75.0,26.0,29.23,NNW,334,4.0,8.0,16,0.00,,,0.00,,2013-05-26 20:42:00,
2013-05-26 16:52:00,74.0,25.0,29.23,WNW,298,4.0,8.0,16,0.00,,,0.00,,2013-05-26 20:52:00,
2013-05-26 17:02:00,71.0,24.0,29.23,North,351,4.0,8.0,17,0.00,,,0.00,,2013-05-26 21:02:00,
2013-05-26 17:11:00,71.0,24.0,29.23,North,351,4.0,8.0,17,0.00,,,0.00,,2013-05-26 21:11:00,
2013-05-26 17:22:00,71.0,24.0,29.23,NNW,337,4.0,9.0,17,0.00,,,0.00,,2013-05-26 21:22:00,
2013-05-26 17:33:00,73.0,24.0,29.23,WNW,290,3.0,8.0,16,0.00,,,0.00,,2013-05-26 21:33:00,
2013-05-26 17:43:00,73.0,24.0,29.23,WNW,290,3.0,8.0,16,0.00,,,0.00,,2013-05-26 21:43:00,
2013-05-26 17:53:00,73.0,24.0,29.23,NNW,331,4.0,7.0,16,0.00,,,0.00,,2013-05-26 21:53:00,
2013-05-26 18:03:00,74.0,25.0,29.21,North,357,5.0,8.0,16,0.00,,,0.00,,2013-05-26 22:03:00,
2013-05-26 18:12:00,74.0,25.0,29.21,North,357,5.0,8.0,16,0.00,,,0.00,,2013-05-26 22:12:00,
2013-05-26 18:23:00,72.0,23.0,29.21,North,1,4.0,10.0,16,0.00,,,0.00,,2013-05-26 22:23:00,
2013-05-26 18:33:00,70.0,23.0,29.23,North,351,4.0,8.0,17,0.00,,,0.00,,2013-05-26 22:33:00,
2013-05-26 18:42:00,71.0,24.0,29.23,NW,326,2.0,7.0,17,0.00,,,0.00,,2013-05-26 22:42:00,
2013-05-26 18:53:00,71.0,24.0,29.23,NW,326,2.0,7.0,17,0.00,,,0.00,,2013-05-26 22:53:00,
2013-05-26 19:02:00,69.0,22.0,29.21,NNW,346,4.0,8.0,17,0.00,,,0.00,,2013-05-26 23:02:00,
2013-05-26 19:12:00,69.0,22.0,29.21,NNW,346,4.0,8.0,17,0.00,,,0.00,,2013-05-26 23:12:00,
2013-05-26 19:22:00,69.0,22.0,29.21,NNW,346,4.0,8.0,17,0.00,,,0.00,,2013-05-26 23:22:00,
2013-05-26 19:32:00,67.0,21.0,29.21,NNW,348,2.0,6.0,17,0.00,,,0.00,,2013-05-26 23:32:00,
2013-05-26 19:43:00,67.0,21.0,29.21,NNW,348,2.0,6.0,17,0.00,,,0.00,,2013-05-26 23:43:00,
2013-05-26 19:52:00,66.0,21.0,29.21,NW,304,2.0,5.0,18,0.00,,,0.00,,2013-05-26 23:52:00,
2013-05-26 20:02:00,66.0,21.0,29.21,NE,39,2.0,4.0,18,0.00,,,0.00,,2013-05-27 00:02:00,
2013-05-26 20:11:00,66.0,21.0,29.21,NE,39,2.0,4.0,18,0.00,,,0.00,,2013-05-27 00:11:00,
2013-05-26 20:22:00,65.0,23.0,29.21,North,356,2.0,5.0,20,0.00,,,0.00,,2013-05-27 00:22:00,
2013-05-26 20:32:00,64.0,23.0,29.21,North,352,2.0,5.0,21,0.00,,,0.00,,2013-05-27 00:32:00,
2013-05-26 20:42:00,64.0,23.0,29.21,North,352,2.0,5.0,21,0.00,,,0.00,,2013-05-27 00:42:00,
2013-05-26 20:52:00,62.0,22.0,29.22,NNE,22,1.0,3.0,21,0.00,,,0.00,,2013-05-27 00:52:00,
2013-05-26 21:01:00,60.0,21.0,29.22,NNE,22,0.0,2.0,22,0.00,,,0.00,,2013-05-27 01:01:00,
2013-05-26 21:11:00,60.0,21.0,29.22,NNE,22,0.0,2.0,22,0.00,,,0.00,,2013-05-27 01:11:00,
2013-05-26 21:22:00,59.0,22.0,29.22,NNE,22,0.0,1.0,24,0.00,,,0.00,,2013-05-27 01:22:00,
2013-05-26 21:32:00,57.0,22.0,29.22,NNE,22,0.0,0.0,25,0.00,,,0.00,,2013-05-27 01:32:00,
2013-05-26 21:42:00,56.0,22.0,29.22,NNE,22,0.0,0.0,26,0.00,,,0.00,,2013-05-27 01:42:00,
2013-05-26 21:52:00,56.0,22.0,29.22,NNE,22,0.0,0.0,26,0.00,,,0.00,,2013-05-27 01:52:00,
2013-05-26 22:02:00,55.0,23.0,29.22,NNE,22,0.0,0.0,29,0.00,,,0.00,,2013-05-27 02:02:00,
2013-05-26 22:11:00,55.0,23.0,29.22,NNE,22,0.0,0.0,29,0.00,,,0.00,,2013-05-27 02:11:00,
2013-05-26 22:22:00,54.0,24.0,29.22,NNE,22,0.0,0.0,31,0.00,,,0.00,,2013-05-27 02:22:00,
2013-05-26 22:32:00,54.0,26.0,29.24,NNE,22,0.0,0.0,33,0.00,,,0.00,,2013-05-27 02:32:00,
2013-05-26 22:42:00,54.0,26.0,29.24,NNE,22,0.0,0.0,33,0.00,,,0.00,,2013-05-27 02:42:00,
2013-05-26 22:52:00,52.0,26.0,29.24,NNE,22,0.0,0.0,36,0.00,,,0.00,,2013-05-27 02:52:00,
2013-05-26 23:02:00,52.0,27.0,29.24,NNE,22,0.0,0.0,37,0.00,,,0.00,,2013-05-27 03:02:00,
2013-05-26 23:11:00,52.0,27.0,29.24,NNE,22,0.0,0.0,37,0.00,,,0.00,,2013-05-27 03:11:00,
2013-05-26 23:21:00,50.0,27.0,29.24,NNE,22,0.0,0.0,40,0.00,,,0.00,,2013-05-27 03:21:00,
2013-05-26 23:33:00,49.0,26.0,29.24,NNE,22,0.0,0.0,41,0.00,,,0.00,,2013-05-27 03:33:00,
2013-05-26 23:43:00,49.0,26.0,29.24,NNE,22,0.0,0.0,41,0.00,,,0.00,,2013-05-27 03:43:00,
2013-05-26 23:53:00,48.0,28.0,29.24,NNE,22,0.0,0.0,45,0.00,,,0.00,,2013-05-27 03:53:00,